User: anonymous   Login
Location: Unspecified
(0.0000°N, 0.0000°E)
Time: 18:47:18
(UTC+00:00)
Language:

Kosmos-2266 - Orbit

View from above orbital plane
View from above orbital plane
View from above satellite
View from above satellite

Ground track
Ground track

The orbit data is extracted from the following two-line orbital elements,

1 22888U 93070A   17145.78369028 +.00000043 +00000-0 +28802-4 0  9999
2 22888 082.9516 009.9576 0049436 061.9018 345.9721 13.74903485179246
Epoch (UTC): 25 May 2017 18:48:30
Eccentricity: 0.0049436
inclination: 82.9516°
perigee height: 945 km
apogee height: 1018 km
right ascension of ascending node: 9.9576°
argument of perigee: 61.9018°
revolutions per day: 13.74903485
mean anomaly at epoch: 345.9721°
orbit number at epoch: 17924

The dashed part of the orbit path shows where the satellite is in the earth's shadow,  

DLR